星链-35125(STARLINK-35125)

导读

STARLINK-35125是美国SpaceX星链星座的成员卫星,于2025年9月6日发射升空。星链星座旨在构建全球卫星互联网系统,为全球各地偏远地区及网络基础设施不完善区域提供高速宽带服务。该卫星入轨后,将和其他星链卫星协同组网,进一步扩大星链的服务覆盖范围,提升星座整体通信能力。

Basic Information
目录编号:
65534
目录名称:
STARLINK-35125
国际标识:
2025-200Q
轨道中心:
EARTH
卫星名称:
星链-35125
卫星全名:
星链-35125(STARLINK-35125)
卫星状态:
在轨 (已飞行280 天)
发射日期:
2025-09-06 UTC
国别 :
美国 (US)
星等 :
--
Orbit Information
数据来源 国际轨道数据 AOE轨道数据
星历时间 2026-06-13T10:32:05+0800
13小时前
查看轨道信息
2026-06-08T02:00:00+0800
5天前
查看轨道信息
半长轴 6927.612km 6927.648km
偏心率 0.0001744 0.0001116
轨道倾角 97.366° 97.392°
近地点辐角 103.070° 121.783°
升交点赤经 232.927° 227.810°
平近点角 257.072° 27.360°
近地点 548.266km 548.737km
远地点 550.684km 550.285km
周期 95.639分钟 95.640分钟
每日圈数 15.056619 15.056501
Detailed Information
固有亮度:
5
最大亮度:
2.5
卫星平台:
Starlink V1.0
覆盖范围:
全球
运营商:
太空探索技术公司
运营商所在国:
美国
制造商(研发单位):
太空探索技术公司
制造商所在国:
美国
使用方式:
暂无
Satellite Introduction
Starlink 计划是 SpaceX 推出的全球卫星互联网项目,通过发射低轨道卫星,为全球尤其是偏远地区提供高速、低延迟的互联网服务。自 2019 年起,Starlink 已部署数千颗卫星,旨在缩小全球数字鸿沟,推动互联网普及。该项目还为军事、航空等行业提供通信支持,带来广泛经济效益。
2D Orbit Map
3D Orbit Map
Orbit Altitude Analysis Chart
Orbit Inclination Analysis Chart
Orbit Comprehensive Analysis Chart
View Comprehensive Chart